Location: Asheville, NC
(35.6000°N, 82.5500°W)
Time: 05:18:28
(UTC-05:00)

Vanguard 3 - Pass Details

Date: 13 February 2018
Orbit: 508 x 3264 km, 33.3° (Epoch: 17 February)

Event Time Altitude Azimuth Distance (km) Brightness Sun altitude
Rises 21:29:31 0° 273° (W) 2,923 10.9 -40.9°
Reaches altitude 10° 21:31:28 10° 269° (W) 2,179 10.0 -41.2°
Enters shadow 21:31:59 14° 267° (W) 1,990 9.7 -41.3°
Maximum altitude 21:36:21 58° 190° (S) 1,105 - -42.2°
Drops below altitude 10° 21:44:41 10° 115° (ESE) 3,651 - -43.8°
Sets 21:48:50 0° 112° (ESE) 5,113 - -44.6°
